EW0364 Weather Reports


time (UTC)temp
F
wind
direction
speed
knots
gust
knots
rain 1hr
in
rain 24hr
in
rain mn
in
humidity
%
barometer
mb
20260507192607 65 279 6.1 13.0 0.00 0.55 0.38 36 1004.6
20260507191707 63 243 6.1 13.0 0.00 0.55 0.38 45 1004.8
20260507184107 64 277 5.2 11.3 0.00 0.55 0.38 44 1005.2
20260507183207 64 281 5.2 9.6 0.00 0.55 0.38 46 1005.3
20260507182307 63 284 7.0 13.0 0.00 0.55 0.38 45 1005.5
20260507181407 64 277 7.0 13.9 0.00 0.55 0.38 45 1005.7
20260507175607 63 288 4.3 13.0 0.00 0.55 0.38 54 1005.7
20260507174707 62 286 3.5 8.7 0.00 0.55 0.38 55 1005.6
20260507173806 62 320 3.5 7.8 0.00 0.55 0.38 57 1005.7
20260507172007 61 275 3.5 7.0 0.00 0.55 0.38 61 1005.9
20260507170206 62 304 2.6 11.3 0.00 0.55 0.38 61 1006.1
20260507165307 62 260 3.5 8.7 0.00 0.55 0.38 62 1006.3
20260507164406 61 294 4.3 9.6 0.00 0.55 0.38 64 1006.4
20260507163506 61 275 4.3 10.4 0.00 0.55 0.38 61 1006.4
20260507162606 61 282 4.3 8.7 0.00 0.55 0.38 63 1006.4
20260507161706 61 339 3.5 7.8 0.00 0.55 0.38 64 1006.6
20260507160806 60 302 3.5 7.8 0.00 0.55 0.38 67 1006.7
20260507155008 59 298 3.5 11.3 0.00 0.55 0.38 68 1007.0
20260507154106 59 293 3.5 8.7 0.00 0.55 0.38 69 1007.0
20260507153206 58 282 4.3 8.7 0.00 0.55 0.38 69 1007.1
20260507152307 58 355 3.5 7.8 0.00 0.55 0.38 71 1007.3
20260507151406 58 4 5.2 9.6 0.00 0.55 0.38 70 1007.2
20260507150506 58 329 4.3 8.7 0.00 0.55 0.38 70 1007.3
20260507145607 57 331 3.5 10.4 0.00 0.55 0.38 75 1007.3
20260507144706 56 349 2.6 7.8 0.00 0.55 0.38 76 1007.3
20260507143806 56 316 3.5 9.6 0.00 0.55 0.38 80 1007.3
20260507142906 55 335 1.7 5.2 0.00 0.55 0.38 85 1007.3
20260507142006 54 328 1.7 7.8 0.00 0.55 0.38 87 1007.2
20260507141107 54 318 2.6 7.0 0.00 0.55 0.38 90 1007.6
20260507135307 52 295 2.6 7.8 0.00 0.55 0.38 92 1007.6
20260507134406 52 327 2.6 6.1 0.00 0.55 0.38 93 1007.8
20260507133506 51 318 1.7 4.3 0.00 0.55 0.38 92 1007.6
20260507132606 51 325 1.7 4.3 0.00 0.55 0.38 92 1007.6
20260507131706 50 323 1.7 3.5 0.00 0.55 0.38 92 1007.9
20260507130807 50 350 0.9 2.6 0.01 0.55 0.38 92 1007.6
20260507125906 50 338 1.7 3.5 0.02 0.55 0.38 92 1007.6
20260507125006 50 344 1.7 4.3 0.02 0.55 0.38 92 1007.6
20260507124106 50 339 0.0 3.5 0.02 0.55 0.38 93 1007.6
20260507123206 49 12 1.7 4.3 0.02 0.55 0.38 93 1007.7
20260507122307 49 359 1.7 6.1 0.03 0.55 0.38 93 1007.9
20260507121406 49 342 1.7 4.3 0.03 0.54 0.37 93 1008.0
20260507120506 49 339 3.5 9.6 0.03 0.54 0.37 93 1007.7
20260507115606 49 351 1.7 7.0 0.02 0.53 0.36 93 1007.6
20260507112907 49 16 2.6 6.1 0.02 0.53 0.36 93 1007.6
20260507112006 49 341 2.6 7.8 0.02 0.52 0.35 93 1007.7
20260507111106 49 337 3.5 8.7 0.01 0.51 0.34 93 1007.9
20260507105307 49 4 3.5 10.4 0.02 0.51 0.34 94 1006.7
20260507104406 49 11 4.3 8.7 0.02 0.51 0.34 93 1006.6
20260507102606 50 1 3.5 7.8 0.03 0.51 0.34 94 1007.1
20260507101705 50 8 3.5 10.4 0.03 0.50 0.33 94 1006.7
20260507100806 50 349 4.3 12.2 0.04 0.50 0.33 95 1006.5
20260507095907 51 356 4.3 12.2 0.04 0.50 0.33 95 1006.6
20260507095006 51 357 2.6 7.8 0.04 0.49 0.32 95 1006.4
20260507094105 52 342 2.6 7.8 0.04 0.48 0.31 95 1006.4
20260507093206 52 331 3.5 8.7 0.05 0.48 0.31 96 1006.2
20260507092307 52 356 2.6 7.0 0.08 0.48 0.31 96 1006.1
20260507091405 52 329 2.6 7.0 0.11 0.47 0.30 96 1006.4
20260507090505 52 343 4.3 10.4 0.21 0.46 0.29 96 1006.5
20260507085605 52 1 4.3 10.4 0.27 0.45 0.28 96 1005.5
20260507084705 54 357 2.6 9.6 0.28 0.45 0.28 96 1006.5
20260507083807 55 321 0.0 0.9 0.27 0.44 0.27 96 1006.0
20260507082905 55 310 1.7 5.2 0.26 0.43 0.26 96 1006.1
20260507082005 55 318 2.6 7.0 0.22 0.39 0.22 96 1005.7
20260507081105 55 298 4.3 9.6 0.17 0.34 0.17 96 1006.7
20260507080205 55 283 0.9 5.2 0.07 0.24 0.07 96 1006.0
20260507075307 55 0 0.0 0.0 0.01 0.18 0.01 96 1005.3
20260507074405 55 222 0.0 1.7 0.00 0.17 0.00 96 1005.2
20260507073505 55 221 0.9 2.6 0.00 0.17 0.00 96 1005.1
20260507071705 55 214 0.9 3.5 0.00 0.17 0.00 96 1005.2
20260507070805 55 210 0.9 2.6 0.00 0.17 0.00 96 1005.3
20260507065905 55 219 0.0 2.6 0.00 0.17 0.00 96 1005.4
20260507065005 55 217 0.0 2.6 0.00 0.17 0.00 96 1005.5
20260507064105 55 0 0.0 0.0 0.00 0.17 0.00 96 1005.5
20260507061405 55 0 0.0 0.0 0.00 0.17 0.00 96 1005.5
20260507060505 55 284 0.0 2.6 0.00 0.17 0.00 96 1005.9
20260507055605 55 247 0.9 2.6 0.00 0.17 0.00 96 1005.9
20260507054705 55 255 0.9 3.5 0.00 0.17 0.00 96 1005.9
20260507053805 55 284 0.9 3.5 0.00 0.17 0.00 96 1006.1
20260507052905 55 271 1.7 5.2 0.00 0.17 0.00 96 1006.3
20260507052005 55 273 2.6 6.1 0.00 0.17 0.00 96 1006.4
20260507051105 55 264 2.6 7.0 0.00 0.17 0.00 96 1006.6
20260507050205 55 250 1.7 5.2 0.00 0.17 0.00 96 1006.4
20260507045306 55 233 1.7 7.0 0.00 0.17 0.00 96 1006.5
20260507044405 55 218 0.9 4.3 0.00 0.17 0.00 96 1006.5
20260507042605 55 247 1.7 4.3 0.00 0.17 0.00 96 1006.4
20260507041705 55 220 1.7 6.1 0.00 0.17 0.00 96 1006.6
20260507040805 55 206 2.6 7.0 0.00 0.17 0.00 96 1006.5
20260507035905 55 221 2.6 11.3 0.00 0.17 0.17 96 1006.7
20260507035005 55 207 2.6 7.8 0.00 0.17 0.17 96 1006.7
20260507034105 55 223 2.6 9.6 0.00 0.17 0.17 96 1006.7
20260507032306 55 247 3.5 8.7 0.00 0.17 0.17 96 1007.1
20260507031405 55 233 4.3 11.3 0.00 0.17 0.17 95 1006.9
20260507030505 55 236 5.2 12.2 0.00 0.17 0.17 95 1006.9
20260507025605 55 230 3.5 9.6 0.00 0.17 0.17 95 1006.8
20260507024704 55 205 5.2 15.6 0.00 0.17 0.17 95 1006.5
20260507023805 55 216 4.3 9.6 0.00 0.17 0.17 95 1006.8
20260507022905 55 216 6.1 14.8 0.00 0.17 0.17 95 1006.9
20260507022005 56 212 5.2 13.0 0.00 0.17 0.17 95 1007.0
20260507020204 56 220 5.2 13.9 0.00 0.17 0.17 95 1007.3
20260507015306 56 224 6.1 14.8 0.00 0.17 0.17 95 1007.4
20260507014405 56 222 6.1 13.0 0.00 0.17 0.17 95 1007.5
20260507013505 56 234 4.3 13.0 0.00 0.17 0.17 95 1007.6
20260507012604 56 238 6.1 13.0 0.00 0.17 0.17 95 1007.7
20260507010804 56 239 5.2 16.5 0.00 0.17 0.17 95 1007.8
20260507005004 56 228 6.1 15.6 0.01 0.17 0.17 95 1007.7
20260507003204 56 234 6.1 14.8 0.02 0.17 0.17 95 1007.6
20260507002306 57 228 5.2 14.8 0.04 0.17 0.17 95 1007.6
20260507001404 57 221 7.0 13.9 0.05 0.17 0.17 95 1007.6
20260507000505 57 226 8.7 18.2 0.05 0.16 0.16 95 1007.7
20260506235604 57 223 7.8 20.0 0.06 0.16 0.16 95 1007.6
20260506234704 57 216 7.8 18.2 0.09 0.16 0.16 95 1007.6
20260506233804 57 215 6.1 15.6 0.09 0.15 0.15 94 1007.4
20260506232004 56 196 6.1 13.0 0.08 0.13 0.13 94 1007.4
20260506231104 56 196 7.0 16.5 0.07 0.11 0.11 93 1007.3
20260506230204 56 207 7.0 16.5 0.08 0.11 0.11 93 1007.5
20260506225306 57 203 8.7 21.7 0.06 0.08 0.09 92 1007.6
20260506224404 57 211 7.8 16.5 0.06 0.07 0.07 92 1007.7
20260506222604 57 215 6.1 14.8 0.04 0.05 0.05 91 1007.9
20260506221704 57 210 8.7 17.4 0.04 0.05 0.05 91 1008.1
20260506220804 57 206 6.1 16.5 0.02 0.03 0.03 91 1008.2
20260506215904 57 199 5.2 11.3 0.02 0.03 0.03 90 1008.2
20260506215005 58 208 6.1 15.6 0.01 0.02 0.02 89 1008.1
20260506214104 58 205 6.1 13.9 0.00 0.01 0.01 89 1008.2
20260506213204 58 199 7.0 15.6 0.01 0.01 0.01 89 1008.1
20260506212306 58 205 7.0 17.4 0.01 0.01 0.01 88 1008.4
20260506211404 58 204 8.7 16.5 0.01 0.01 0.01 88 1008.5
20260506210504 58 203 8.7 20.9 0.01 0.01 0.01 87 1008.6
20260506205604 59 212 8.7 20.9 0.01 0.01 0.01 87 1008.6
20260506203804 59 214 9.6 20.0 0.01 0.01 0.01 87 1008.6
20260506202904 59 201 7.8 16.5 0.00 0.00 0.00 87 1008.7
20260506202004 59 208 7.8 16.5 0.00 0.00 0.00 87 1008.8
20260506200204 59 202 8.7 18.2 0.00 0.00 0.00 84 1008.9
20260506195306 59 210 7.0 17.4 0.00 0.00 0.00 84 1009.1
20260506193504 60 198 8.7 26.1 0.00 0.00 0.00 83 1009.3